Regional Weather Roundup
Issued by NWS

Home | Current Version | Previous Version | Text Only | Print | Product List | Glossary On
Versions: 1 2 3 4 5 6 7 8 9 10 11 12 13 14 15 16 17 18 19 20 21 22 23 24 25 26 27 28 29 30 31 32 33 34 35 36 37 38 39 40 41 42 43 44 45 46 47 48 49 50
000
ASUS43 KLSX 231107
RWRMO

WEATHER SUMMARY FOR MISSOURI
NATIONAL WEATHER SERVICE SPRINGFIELD MO
600 AM CDT SAT MAY 23 2015

NOTE: "FAIR" INDICATES FEW OR NO CLOUDS BELOW 12,000 FEET WITH NO
       SIGNIFICANT WEATHER AND/OR OBSTRUCTIONS TO VISIBILITY.
       CURRENT SKY AND/OR WEATHER CONDITIONS ARE NOT AVAILABLE FOR
       CHILLICOTHE AND FARMINGTON.

MOZ001>031-035>038-043-044-053-054-231200-
...NORTHERN AND WESTERN MISSOURI...

CITY           SKY/WX    TMP DP  RH WIND       PRES   REMARKS
KANSAS CTY INT CLOUDY    59  52  77 SE7       30.21S
KANSAS C DTWN  CLOUDY    61  52  72 CALM      30.21R
LEE`S SUMMIT   CLOUDY    59  51  75 S5        30.22R
ST JOSEPH      RAIN      57  55  93 S7        30.21R FOG
CHILLICOTHE      N/A     61  53  75 SE5       30.24S
KIRKSVILLE     CLOUDY    58  53  84 SE8       30.26F

$$
MOZ066>068-077>081-088>096-101>105-231200-
...SOUTHWEST MISSOURI...

CITY           SKY/WX    TMP DP  RH WIND       PRES   REMARKS
SPRINGFIELD    CLOUDY    60  48  64 S12       30.23R
JOPLIN         CLOUDY    58  54  86 CALM      30.22R

$$
MOZ032>034-039>042-045>050-055>058-069>072-231200-
...CENTRAL MISSOURI...

CITY           SKY/WX    TMP DP  RH WIND       PRES   REMARKS
COLUMBIA       CLOUDY    60  53  77 SE6       30.27R
JEFFERSON CITY MOCLDY    58  54  86 E5        30.27R
ROLLA          CLOUDY    58  50  75 SE8       30.27R
SEDALIA        CLOUDY    60  50  69 SE8       30.25S
WHITEMAN AFB   CLOUDY    60  50  71 SE5       30.23R
WARRENSBURG    CLOUDY    59  50  72 SE6       30.23R
OSAGE BEACH    CLOUDY    59  48  67 E5        30.26R

$$
MOZ051-052-059>065-231200-
...EAST CENTRAL MISSOURI...

CITY           SKY/WX    TMP DP  RH WIND       PRES   REMARKS
ST LOUIS INTL  LGT RAIN  64  53  67 CALM      30.30
SPIRIT OF STL  CLOUDY    58  57  97 CALM      30.29R
ST CHARLES     CLOUDY    59  57  93 NE3       30.29R

$$
MOZ072>076-082>087-097>100-106>115-231200-
...SOUTH CENTRAL AND SOUTHEAST MISSOURI...

CITY           SKY/WX    TMP DP  RH WIND       PRES   REMARKS
CAPE GIRARDEAU CLOUDY    59  57  93 E5        30.30S
FARMINGTON     CLOUDY    57  52  82 CALM      30.34R
POPLAR BLUFF   CLOUDY    60  56  86 CALM      30.28R
WEST PLAINS    CLOUDY    58  49  72 E3        30.28S

$$


USA.gov is the U.S. government's official web portal to all federal, state and local government web resources and services.